W4HSV Weather Reports


Display with metric or nautical units.
time (UTC)temp
F
wind
direction
speed
MPH
gust
MPH
rain 1hr
in
rain 24hr
in
rain mn
in
humidity
%
barometer
mb
20260506041837 72 173 6.0 14.0 0.00 0.00 0.00 67 1010.1
20260506041722 72 208 6.0 14.0 0.00 0.00 0.00 67 1010.1
20260506041651 72 169 7.0 14.0 0.00 0.00 0.00 67 1010.0
20260506041518 72 187 7.0 14.0 0.00 0.00 0.00 67 1010.0
20260506041425 72 188 6.0 14.0 0.00 0.00 0.00 67 1010.0
20260506041316 72 215 5.0 14.0 0.00 0.00 0.00 67 1010.0
20260506041225 72 178 7.0 14.0 0.00 0.00 0.00 67 1010.0
20260506041112 72 174 7.0 14.0 0.00 0.00 0.00 67 1010.1
20260506041020 72 192 6.0 10.0 0.00 0.00 0.00 67 1010.1
20260506040927 72 169 6.0 10.0 0.00 0.00 0.00 67 1010.1
20260506040813 72 199 5.0 10.0 0.00 0.00 0.00 67 1010.1
20260506040724 72 195 5.0 10.0 0.00 0.00 0.00 67 1010.1
20260506040651 72 174 5.0 10.0 0.00 0.00 0.00 67 1010.1
20260506040622 72 127 5.0 10.0 0.00 0.00 0.00 67 1010.0
20260506040314 72 178 5.0 10.0 0.00 0.00 0.00 67 1010.0
20260506040222 72 182 6.0 10.0 0.00 0.00 0.00 67 1010.0
20260506040112 72 191 6.0 10.0 0.00 0.00 0.00 67 1010.0
20260506040039 72 178 5.0 9.0 0.00 0.00 0.00 67 1010.1
20260506035925 72 192 5.0 9.0 0.00 0.00 0.00 67 1010.1
20260506035813 72 171 5.0 10.0 0.00 0.00 0.00 67 1010.1
20260506035722 72 142 5.0 10.0 0.00 0.00 0.00 67 1010.1
20260506035614 72 183 5.0 10.0 0.00 0.00 0.00 67 1010.1
20260506035521 72 165 4.0 10.0 0.00 0.00 0.00 67 1010.1
20260506035429 72 161 4.0 10.0 0.00 0.00 0.00 67 1010.1
20260506035316 72 140 5.0 10.0 0.00 0.00 0.00 67 1010.1
20260506035223 72 182 6.0 10.0 0.00 0.00 0.00 67 1010.1
20260506035131 72 184 5.0 10.0 0.00 0.00 0.00 67 1010.0
20260506035106 72 183 4.0 12.0 0.00 0.00 0.00 67 1010.0
20260506034818 72 184 5.0 12.0 0.00 0.00 0.00 67 1010.0
20260506034726 72 194 6.0 12.0 0.00 0.00 0.00 67 1010.0
20260506034614 72 189 6.0 12.0 0.00 0.00 0.00 67 1010.0
20260506034542 72 174 6.0 12.0 0.00 0.00 0.00 67 1010.1
20260506034411 72 141 5.0 12.0 0.00 0.00 0.00 67 1010.1
20260506034319 72 221 5.0 12.0 0.00 0.00 0.00 67 1010.1
20260506034227 72 200 6.0 12.0 0.00 0.00 0.00 67 1010.1
20260506034114 72 196 7.0 12.0 0.00 0.00 0.00 67 1010.1
20260506034021 72 183 6.0 12.0 0.00 0.00 0.00 67 1010.1
20260506033912 72 184 4.0 11.0 0.00 0.00 0.00 67 1010.1
20260506033820 72 189 4.0 11.0 0.00 0.00 0.00 67 1010.0
20260506033746 72 185 4.0 11.0 0.00 0.00 0.00 66 1010.0
20260506033613 72 207 6.0 11.0 0.00 0.00 0.00 67 1010.1
20260506033546 72 190 6.0 11.0 0.00 0.00 0.00 67 1010.1
20260506033323 72 186 7.0 11.0 0.00 0.00 0.00 66 1010.1
20260506033211 72 189 6.0 12.0 0.00 0.00 0.00 66 1010.0
20260506033119 72 197 7.0 12.0 0.00 0.00 0.00 66 1010.0
20260506033027 72 202 7.0 12.0 0.00 0.00 0.00 66 1010.0
20260506032915 72 157 6.0 12.0 0.00 0.00 0.00 66 1009.9
20260506032843 72 171 6.0 12.0 0.00 0.00 0.00 66 1009.9
20260506032713 72 162 7.0 12.0 0.00 0.00 0.00 66 1009.9
20260506032621 72 134 7.0 12.0 0.00 0.00 0.00 66 1009.9
20260506032529 72 183 7.0 12.0 0.00 0.00 0.00 66 1010.1
20260506032416 72 212 7.0 12.0 0.00 0.00 0.00 66 1010.1
20260506032323 72 202 7.0 12.0 0.00 0.00 0.00 66 1010.1
20260506032216 72 172 6.0 12.0 0.00 0.00 0.00 66 1010.2
20260506032121 72 184 6.0 12.0 0.00 0.00 0.00 66 1010.2
20260506032051 72 188 7.0 12.0 0.00 0.00 0.00 66 1010.1
20260506031844 72 182 7.0 12.0 0.00 0.00 0.00 66 1010.1
20260506031710 72 169 7.0 12.0 0.00 0.00 0.00 66 1010.1
20260506031618 72 195 8.0 12.0 0.00 0.00 0.00 66 1010.1
20260506031530 72 190 8.0 12.0 0.00 0.00 0.00 66 1010.1
20260506031416 72 190 6.0 14.0 0.00 0.00 0.00 66 1010.0
20260506031324 72 131 5.0 14.0 0.00 0.00 0.00 67 1010.0
20260506031212 72 215 6.0 14.0 0.00 0.00 0.00 67 1010.0
20260506031118 72 184 7.0 14.0 0.00 0.00 0.00 66 1010.0
20260506031011 72 169 7.0 11.0 0.00 0.00 0.00 66 1009.9
20260506030938 72 196 6.0 11.0 0.00 0.00 0.00 66 1010.0
20260506030824 72 167 7.0 11.0 0.00 0.00 0.00 66 1010.0
20260506030713 72 173 6.0 11.0 0.00 0.00 0.00 66 1010.0
20260506030641 72 192 6.0 11.0 0.00 0.00 0.00 66 1010.0
20260506030615 72 180 6.0 11.0 0.00 0.00 0.00 66 1009.9
20260506030349 72 170 6.0 11.0 0.00 0.00 0.00 66 1010.0
20260506030216 72 211 6.0 11.0 0.00 0.00 0.00 66 1010.1
20260506030122 72 204 7.0 11.0 0.00 0.00 0.00 66 1010.1
20260506030010 72 184 6.0 10.0 0.00 0.00 0.00 66 1010.1
20260506025917 72 179 6.0 10.0 0.00 0.00 0.00 66 1010.2
20260506025844 72 194 6.0 10.0 0.00 0.00 0.00 66 1010.2
20260506025714 72 171 7.0 10.0 0.00 0.00 0.00 66 1010.1
20260506025622 72 188 7.0 10.0 0.00 0.00 0.00 66 1010.1
20260506025530 72 175 6.0 10.0 0.00 0.00 0.00 66 1010.1
20260506025438 72 219 4.0 10.0 0.00 0.00 0.00 66 1010.1
20260506025346 72 182 6.0 10.0 0.00 0.00 0.00 66 1010.1
20260506025212 72 169 6.0 10.0 0.00 0.00 0.00 66 1010.1
20260506025125 72 190 7.0 10.0 0.00 0.00 0.00 66 1010.1
20260506025055 72 188 7.0 10.0 0.00 0.00 0.00 66 1010.0
20260506024829 72 187 7.0 10.0 0.00 0.00 0.00 66 1010.1
20260506024718 72 170 5.0 10.0 0.00 0.00 0.00 67 1010.0
20260506024610 72 151 4.0 10.0 0.00 0.00 0.00 66 1009.9
20260506024517 72 209 4.0 10.0 0.00 0.00 0.00 67 1009.9
20260506024424 72 188 3.0 10.0 0.00 0.00 0.00 66 1009.9
20260506024312 72 199 4.0 10.0 0.00 0.00 0.00 66 1009.7
20260506024240 72 130 4.0 10.0 0.00 0.00 0.00 66 1009.8
20260506024126 72 165 5.0 10.0 0.00 0.00 0.00 66 1009.8
20260506024014 72 232 6.0 11.0 0.00 0.00 0.00 66 1009.8
20260506023924 72 180 7.0 10.0 0.00 0.00 0.00 66 1009.8
20260506023812 72 178 6.0 10.0 0.00 0.00 0.00 66 1009.7
20260506023720 72 225 5.0 10.0 0.00 0.00 0.00 67 1009.7
20260506023627 72 139 4.0 10.0 0.00 0.00 0.00 66 1009.7
20260506023602 72 141 4.0 10.0 0.00 0.00 0.00 67 1009.7
20260506023315 72 189 4.0 10.0 0.00 0.00 0.00 67 1009.7
20260506023222 72 178 5.0 13.0 0.00 0.00 0.00 67 1009.7
20260506023130 72 146 6.0 13.0 0.00 0.00 0.00 66 1009.8
20260506023017 72 186 7.0 13.0 0.00 0.00 0.00 66 1009.9
20260506022925 72 169 7.0 13.0 0.00 0.00 0.00 67 1009.9
20260506022817 72 196 6.0 13.0 0.00 0.00 0.00 67 1009.9
20260506022725 72 163 6.0 13.0 0.00 0.00 0.00 67 1009.9
20260506022613 72 154 6.0 13.0 0.00 0.00 0.00 67 1009.9
20260506022521 72 179 8.0 13.0 0.00 0.00 0.00 67 1009.9
20260506022427 72 166 9.0 13.0 0.00 0.00 0.00 67 1010.0
20260506022319 72 201 8.0 13.0 0.00 0.00 0.00 67 1009.9
20260506022226 72 190 6.0 13.0 0.00 0.00 0.00 67 1009.9
20260506022134 72 173 7.0 13.0 0.00 0.00 0.00 67 1009.7
20260506022103 72 208 7.0 13.0 0.00 0.00 0.00 67 1009.8
20260506021817 72 191 7.0 13.0 0.00 0.00 0.00 67 1009.7
20260506021729 72 179 7.0 13.0 0.00 0.00 0.00 67 1009.7
20260506021616 72 202 8.0 13.0 0.00 0.00 0.00 67 1009.7
20260506021523 72 194 8.0 12.0 0.00 0.00 0.00 67 1009.7
20260506021429 72 187 7.0 10.0 0.00 0.00 0.00 67 1009.7
20260506021317 71 196 7.0 11.0 0.00 0.00 0.00 67 1009.7
20260506021225 72 178 6.0 10.0 0.00 0.00 0.00 67 1009.7
20260506021116 72 175 5.0 10.0 0.00 0.00 0.00 67 1009.7
20260506021025 72 187 5.0 10.0 0.00 0.00 0.00 67 1009.7
20260506020931 71 159 6.0 10.0 0.00 0.00 0.00 67 1009.6
20260506020817 71 187 7.0 10.0 0.00 0.00 0.00 67 1009.5
20260506020723 71 184 7.0 10.0 0.00 0.00 0.00 67 1009.5
20260506020615 71 168 5.0 10.0 0.00 0.00 0.00 67 1009.3
20260506020546 72 202 6.0 10.0 0.00 0.00 0.00 67 1009.3
20260506020318 72 213 6.0 10.0 0.00 0.00 0.00 67 1009.0
20260506020225 72 151 5.0 10.0 0.00 0.00 0.00 67 1009.0
20260506020111 72 165 6.0 10.0 0.00 0.00 0.00 67 1008.9
20260506020022 72 132 6.0 10.0 0.00 0.00 0.00 67 1008.9
20260506015929 72 132 6.0 10.0 0.00 0.00 0.00 67 1008.9
20260506015837 72 140 5.0 10.0 0.00 0.00 0.00 67 1009.0
20260506015724 72 178 6.0 10.0 0.00 0.00 0.00 67 1009.0
20260506015612 72 215 7.0 10.0 0.00 0.00 0.00 67 1009.2
20260506015520 72 163 6.0 10.0 0.00 0.00 0.00 66 1009.2
20260506015411 72 211 5.0 8.0 0.00 0.00 0.00 66 1009.4
20260506015319 72 160 5.0 13.0 0.00 0.00 0.00 66 1009.3
20260506015226 72 159 5.0 14.0 0.00 0.00 0.00 66 1009.3
20260506015134 72 151 5.0 14.0 0.00 0.00 0.00 66 1009.3
20260506015048 72 192 4.0 14.0 0.00 0.00 0.00 66 1009.3
20260506014822 72 142 5.0 14.0 0.00 0.00 0.00 66 1009.3
20260506014729 72 172 6.0 14.0 0.00 0.00 0.00 66 1009.4
20260506014617 72 148 8.0 14.0 0.00 0.00 0.00 66 1009.5
20260506014524 72 185 8.0 15.0 0.00 0.00 0.00 66 1009.5
20260506014412 72 179 7.0 11.0 0.00 0.00 0.00 66 1009.6
20260506014322 72 159 7.0 15.0 0.00 0.00 0.00 66 1009.6
20260506014229 72 156 6.0 15.0 0.00 0.00 0.00 66 1009.7
20260506014117 72 155 4.0 15.0 0.00 0.00 0.00 66 1009.8
20260506014026 72 198 5.0 15.0 0.00 0.00 0.00 66 1009.8
20260506013912 72 173 6.0 15.0 0.00 0.00 0.00 66 1009.8
20260506013825 72 157 7.0 15.0 0.00 0.00 0.00 66 1009.8
20260506013713 72 161 8.0 15.0 0.00 0.00 0.00 66 1009.8
20260506013619 72 171 6.0 15.0 0.00 0.00 0.00 66 1009.8
20260506013547 72 167 7.0 11.0 0.00 0.00 0.00 66 1009.8
20260506013321 72 227 5.0 10.0 0.00 0.00 0.00 66 1009.8
20260506013232 72 181 5.0 10.0 0.00 0.00 0.00 66 1009.8
20260506013139 72 159 6.0 10.0 0.00 0.00 0.00 66 1009.7
20260506013025 72 188 6.0 10.0 0.00 0.00 0.00 66 1009.7
20260506012912 72 213 5.0 10.0 0.00 0.00 0.00 66 1009.6
20260506012820 72 168 5.0 10.0 0.00 0.00 0.00 66 1009.6
20260506012748 72 148 6.0 10.0 0.00 0.00 0.00 66 1009.6
20260506012619 72 184 8.0 10.0 0.00 0.00 0.00 66 1009.7
20260506012546 72 205 6.0 10.0 0.00 0.00 0.00 66 1009.7
20260506012431 72 187 4.0 8.0 0.00 0.00 0.00 66 1009.7
20260506012318 72 192 3.0 8.0 0.00 0.00 0.00 66 1009.6
20260506012225 72 161 3.0 8.0 0.00 0.00 0.00 66 1009.6
20260506012132 72 207 3.0 8.0 0.00 0.00 0.00 66 1009.6
20260506012108 72 178 4.0 8.0 0.00 0.00 0.00 66 1009.6
20260506011820 72 171 5.0 8.0 0.00 0.00 0.00 66 1009.6
20260506011728 72 168 4.0 8.0 0.00 0.00 0.00 66 1009.6
20260506011615 72 190 5.0 12.0 0.00 0.00 0.00 66 1009.5
20260506011524 72 128 5.0 12.0 0.00 0.00 0.00 65 1009.5
20260506011415 72 160 5.0 12.0 0.00 0.00 0.00 66 1009.5
20260506011323 72 151 4.0 12.0 0.00 0.00 0.00 65 1009.5
20260506011230 72 206 4.0 12.0 0.00 0.00 0.00 65 1009.5
20260506011116 72 143 6.0 12.0 0.00 0.00 0.00 66 1009.4
20260506011045 72 175 7.0 12.0 0.00 0.00 0.00 65 1009.4
20260506010910 72 153 8.0 12.0 0.00 0.00 0.00 65 1009.5
20260506010821 72 118 7.0 11.0 0.00 0.00 0.00 65 1009.5
20260506010727 72 182 7.0 11.0 0.00 0.00 0.00 65 1009.4
20260506010634 72 164 6.0 11.0 0.00 0.00 0.00 65 1009.5
20260506010604 72 142 6.0 11.0 0.00 0.00 0.00 65 1009.5
20260506010317 72 132 6.0 14.0 0.00 0.00 0.00 65 1009.4
20260506010228 72 160 6.0 14.0 0.00 0.00 0.00 65 1009.4
20260506010115 72 144 6.0 14.0 0.00 0.00 0.00 65 1009.4
20260506010023 72 142 5.0 14.0 0.00 0.00 0.00 65 1009.4
20260506005912 72 146 5.0 14.0 0.00 0.00 0.00 65 1009.4
20260506005819 72 175 5.0 14.0 0.00 0.00 0.00 65 1009.4
20260506005711 72 152 7.0 14.0 0.00 0.00 0.00 64 1009.4
20260506005618 72 187 7.0 14.0 0.00 0.00 0.00 65 1009.5
20260506005526 72 165 6.0 13.0 0.00 0.00 0.00 65 1009.5
20260506005412 72 193 6.0 9.0 0.00 0.00 0.00 64 1009.5
20260506005319 72 185 6.0 10.0 0.00 0.00 0.00 64 1009.4
20260506005211 72 164 5.0 11.0 0.00 0.00 0.00 64 1009.4
20260506005118 72 196 6.0 11.0 0.00 0.00 0.00 64 1009.4
20260506005047 72 194 5.0 12.0 0.00 0.00 0.00 65 1009.4
20260506004841 72 196 5.0 12.0 0.00 0.00 0.00 64 1009.5
20260506004726 72 176 5.0 12.0 0.00 0.00 0.00 65 1009.5
20260506004633 72 198 6.0 12.0 0.00 0.00 0.00 64 1009.5
20260506004523 72 197 7.0 12.0 0.00 0.00 0.00 64 1009.5
20260506004412 72 155 7.0 12.0 0.00 0.00 0.00 64 1009.5
20260506004318 72 210 6.0 12.0 0.00 0.00 0.00 64 1009.5
20260506004225 72 184 7.0 12.0 0.00 0.00 0.00 64 1009.5
20260506004112 72 175 6.0 12.0 0.00 0.00 0.00 64 1009.6
20260506004023 72 189 5.0 10.0 0.00 0.00 0.00 64 1009.6
20260506003951 72 193 6.0 10.0 0.00 0.00 0.00 64 1009.6
20260506003816 72 169 7.0 10.0 0.00 0.00 0.00 64 1009.6
20260506003723 72 205 6.0 10.0 0.00 0.00 0.00 64 1009.6
20260506003610 72 182 5.0 11.0 0.00 0.00 0.00 64 1009.6
20260506003545 72 171 5.0 11.0 0.00 0.00 0.00 64 1009.6
20260506003317 72 182 4.0 11.0 0.00 0.00 0.00 64 1009.6
20260506003225 72 188 5.0 11.0 0.00 0.00 0.00 64 1009.6
20260506003112 72 186 5.0 11.0 0.00 0.00 0.00 63 1009.5
20260506003021 72 176 5.0 11.0 0.00 0.00 0.00 64 1009.5
20260506002948 72 150 5.0 11.0 0.00 0.00 0.00 63 1009.5
20260506002819 72 190 6.0 11.0 0.00 0.00 0.00 64 1009.5
20260506002727 72 198 6.0 14.0 0.00 0.00 0.00 63 1009.5
20260506002613 72 144 4.0 14.0 0.00 0.00 0.00 64 1009.3
20260506002541 72 130 4.0 14.0 0.00 0.00 0.00 63 1009.1
20260506002448 72 143 5.0 14.0 0.00 0.00 0.00 63 1009.1
20260506002314 72 139 6.0 14.0 0.00 0.00 0.00 63 1009.3
20260506002242 72 175 6.0 14.0 0.00 0.00 0.00 63 1009.3
20260506002133 72 151 7.0 14.0 0.00 0.00 0.00 63 1009.4
20260506002102 73 147 8.0 14.0 0.00 0.00 0.00 63 1009.5
20260506001815 72 194 8.0 12.0 0.00 0.00 0.00 63 1009.3
20260506001723 72 185 7.0 11.0 0.00 0.00 0.00 63 1009.3
20260506001615 72 158 6.0 11.0 0.00 0.00 0.00 63 1009.2
20260506001521 73 168 6.0 11.0 0.00 0.00 0.00 63 1009.2
20260506001429 73 169 6.0 13.0 0.00 0.00 0.00 63 1009.3
20260506001336 73 199 6.0 13.0 0.00 0.00 0.00 63 1009.2
20260506001223 73 118 5.0 13.0 0.00 0.00 0.00 63 1009.2
20260506001150 73 209 6.0 13.0 0.00 0.00 0.00 63 1009.3
20260506001015 73 184 7.0 13.0 0.00 0.00 0.00 63 1009.5
20260506000928 73 140 7.0 13.0 0.00 0.00 0.00 63 1009.5
20260506000815 73 175 7.0 13.0 0.00 0.00 0.00 63 1009.4
20260506000723 73 183 7.0 13.0 0.00 0.00 0.00 62 1009.4
20260506000651 73 199 7.0 13.0 0.00 0.00 0.00 62 1009.4
20260506000620 73 201 7.0 13.0 0.00 0.00 0.00 62 1009.3
20260506000336 73 160 8.0 13.0 0.00 0.00 0.00 62 1009.2
20260506000222 73 179 9.0 15.0 0.00 0.00 0.00 62 1009.2
20260506000129 73 155 9.0 16.0 0.00 0.00 0.00 62 1009.3
20260506000017 73 204 7.0 16.0 0.00 0.00 0.00 62 1009.4
20260505235924 73 151 5.0 16.0 0.00 0.00 0.00 63 1009.4
20260505235816 73 150 6.0 16.0 0.00 0.00 0.00 62 1009.3
20260505235724 73 191 6.0 16.0 0.00 0.00 0.00 62 1009.3
20260505235613 73 129 7.0 16.0 0.00 0.00 0.00 62 1009.3
20260505235520 73 151 9.0 16.0 0.00 0.00 0.00 62 1009.3
20260505235427 73 154 10.0 16.0 0.00 0.00 0.00 62 1009.4
20260505235313 73 152 9.0 16.0 0.00 0.00 0.00 62 1009.3
20260505235223 73 165 9.0 16.0 0.00 0.00 0.00 62 1009.3
20260505235131 73 130 8.0 14.0 0.00 0.00 0.00 62 1009.3
20260505235101 73 155 6.0 14.0 0.00 0.00 0.00 62 1009.4
20260505234815 73 151 7.0 14.0 0.00 0.00 0.00 62 1009.4
20260505234727 73 170 7.0 14.0 0.00 0.00 0.00 62 1009.4
20260505234614 73 139 6.0 14.0 0.00 0.00 0.00 62 1009.5
20260505234522 73 142 5.0 14.0 0.00 0.00 0.00 62 1009.5
20260505234429 73 115 5.0 16.0 0.00 0.00 0.00 62 1009.7
20260505234317 73 188 5.0 17.0 0.00 0.00 0.00 62 1009.6
20260505234224 73 194 6.0 17.0 0.00 0.00 0.00 62 1009.6
20260505234115 73 128 6.0 17.0 0.00 0.00 0.00 62 1009.7
20260505234022 73 207 6.0 17.0 0.00 0.00 0.00 62 1009.7
20260505233930 73 211 8.0 17.0 0.00 0.00 0.00 61 1009.6
20260505233838 73 184 10.0 17.0 0.00 0.00 0.00 61 1009.7
20260505233724 73 167 11.0 17.0 0.00 0.00 0.00 61 1009.7
20260505233616 73 207 12.0 17.0 0.00 0.00 0.00 61 1009.7
20260505233546 73 196 11.0 17.0 0.00 0.00 0.00 61 1009.7
20260505233320 73 182 9.0 17.0 0.00 0.00 0.00 61 1009.8
20260505233248 73 189 9.0 17.0 0.00 0.00 0.00 61 1009.8
20260505233134 73 213 8.0 17.0 0.00 0.00 0.00 61 1009.9
20260505233020 73 210 10.0 17.0 0.00 0.00 0.00 61 1009.8
20260505232911 73 151 12.0 17.0 0.00 0.00 0.00 61 1009.8
20260505232818 73 184 10.0 16.0 0.00 0.00 0.00 61 1009.8
20260505232725 73 217 9.0 17.0 0.00 0.00 0.00 61 1009.8
20260505232614 73 184 7.0 15.0 0.00 0.00 0.00 61 1009.9
20260505232519 73 197 8.0 15.0 0.00 0.00 0.00 61 1009.9
20260505232411 73 184 9.0 15.0 0.00 0.00 0.00 61 1010.0
20260505232317 73 187 9.0 16.0 0.00 0.00 0.00 61 1010.0
20260505232224 73 203 9.0 16.0 0.00 0.00 0.00 61 1010.0
20260505232112 73 86 9.0 16.0 0.00 0.00 0.00 61 1010.1
20260505232047 73 135 8.0 16.0 0.00 0.00 0.00 61 1010.1
20260505231821 73 166 8.0 16.0 0.00 0.00 0.00 61 1010.1
20260505231730 73 171 8.0 16.0 0.00 0.00 0.00 61 1010.2
20260505231616 73 178 9.0 16.0 0.00 0.00 0.00 60 1010.2
20260505231523 73 192 10.0 16.0 0.00 0.00 0.00 60 1010.2
20260505231410 73 190 9.0 15.0 0.00 0.00 0.00 60 1010.3
20260505231322 73 168 9.0 14.0 0.00 0.00 0.00 60 1010.3
20260505231211 73 157 9.0 16.0 0.00 0.00 0.00 60 1010.4
20260505231118 73 214 11.0 16.0 0.00 0.00 0.00 60 1010.4
20260505231045 74 192 11.0 18.0 0.00 0.00 0.00 60 1010.4
20260505230932 74 183 8.0 18.0 0.00 0.00 0.00 60 1010.4
20260505230818 74 198 8.0 18.0 0.00 0.00 0.00 60 1010.4
20260505230710 74 187 9.0 21.0 0.00 0.00 0.00 60 1010.3
20260505230618 74 170 10.0 21.0 0.00 0.00 0.00 60 1010.4
20260505230547 74 168 9.0 21.0 0.00 0.00 0.00 60 1010.4
20260505230320 74 167 9.0 21.0 0.00 0.00 0.00 60 1010.4
20260505230211 74 189 10.0 21.0 0.00 0.00 0.00 60 1010.3
20260505230119 74 163 10.0 21.0 0.00 0.00 0.00 60 1010.4
20260505230046 74 189 11.0 21.0 0.00 0.00 0.00 60 1010.4
20260505225911 74 169 11.0 21.0 0.00 0.00 0.00 60 1010.2
20260505225819 74 173 10.0 16.0 0.00 0.00 0.00 59 1010.3
20260505225724 74 179 10.0 16.0 0.00 0.00 0.00 59 1010.3
20260505225612 74 192 9.0 14.0 0.00 0.00 0.00 60 1010.2
20260505225523 74 178 9.0 16.0 0.00 0.00 0.00 60 1010.2
20260505225411 74 199 9.0 16.0 0.00 0.00 0.00 60 1010.3
20260505225319 74 207 9.0 16.0 0.00 0.00 0.00 60 1010.3
20260505225228 74 197 6.0 16.0 0.00 0.00 0.00 60 1010.3
20260505225135 74 128 6.0 16.0 0.00 0.00 0.00 60 1010.2
20260505225047 74 181 7.0 16.0 0.00 0.00 0.00 60 1010.2
20260505224820 74 170 10.0 16.0 0.00 0.00 0.00 60 1010.3
20260505224728 74 207 11.0 17.0 0.00 0.00 0.00 60 1010.3
20260505224636 74 176 8.0 16.0 0.00 0.00 0.00 60 1010.3
20260505224542 74 182 9.0 15.0 0.00 0.00 0.00 60 1010.3
20260505224410 74 175 9.0 16.0 0.00 0.00 0.00 60 1010.4
20260505224321 74 204 8.0 15.0 0.00 0.00 0.00 60 1010.4
20260505224249 74 169 8.0 15.0 0.00 0.00 0.00 60 1010.4
20260505224115 74 140 8.0 15.0 0.00 0.00 0.00 60 1010.3
20260505224022 73 192 8.0 15.0 0.00 0.00 0.00 60 1010.3
20260505223949 74 188 8.0 15.0 0.00 0.00 0.00 60 1010.4
20260505223815 73 195 7.0 15.0 0.00 0.00 0.00 60 1010.3
20260505223743 73 174 7.0 15.0 0.00 0.00 0.00 60 1010.3
20260505223613 73 173 8.0 17.0 0.00 0.00 0.00 60 1010.4
20260505223544 73 211 8.0 17.0 0.00 0.00 0.00 60 1010.4
20260505223337 73 209 8.0 17.0 0.00 0.00 0.00 60 1010.6
20260505223225 73 169 8.0 17.0 0.00 0.00 0.00 60 1010.6
20260505223117 74 202 8.0 17.0 0.00 0.00 0.00 60 1010.7
20260505223024 73 193 8.0 17.0 0.00 0.00 0.00 60 1010.7
20260505222911 74 179 9.0 17.0 0.00 0.00 0.00 60 1010.7
20260505222817 74 196 8.0 17.0 0.00 0.00 0.00 60 1010.6
20260505222725 74 166 7.0 16.0 0.00 0.00 0.00 60 1010.6
20260505222632 74 186 8.0 16.0 0.00 0.00 0.00 60 1010.7
20260505222523 74 185 8.0 16.0 0.00 0.00 0.00 60 1010.7
20260505222429 74 197 9.0 16.0 0.00 0.00 0.00 60 1010.7
20260505222337 74 196 8.0 16.0 0.00 0.00 0.00 60 1010.7
20260505222223 74 175 6.0 16.0 0.00 0.00 0.00 60 1010.7
20260505222110 74 185 8.0 16.0 0.00 0.00 0.00 59 1010.7
20260505222044 74 201 9.0 16.0 0.00 0.00 0.00 59 1010.7
20260505221818 74 170 8.0 16.0 0.00 0.00 0.00 60 1010.8
20260505221745 74 182 7.0 16.0 0.00 0.00 0.00 59 1010.8
20260505221611 74 194 6.0 16.0 0.00 0.00 0.00 59 1010.6
20260505221519 74 186 8.0 16.0 0.00 0.00 0.00 59 1010.6
20260505221427 74 186 10.0 16.0 0.00 0.00 0.00 59 1010.6
20260505221318 74 211 8.0 15.0 0.00 0.00 0.00 59 1010.6
20260505221225 74 169 6.0 16.0 0.00 0.00 0.00 59 1010.6
20260505221114 74 157 7.0 13.0 0.00 0.00 0.00 59 1010.6
20260505221041 74 202 8.0 13.0 0.00 0.00 0.00 59 1010.6
20260505220926 74 150 7.0 13.0 0.00 0.00 0.00 59 1010.6
20260505220814 74 196 6.0 13.0 0.00 0.00 0.00 60 1010.6
20260505220725 74 115 6.0 13.0 0.00 0.00 0.00 59 1010.6
20260505220612 74 150 8.0 13.0 0.00 0.00 0.00 59 1010.5
20260505220544 74 190 8.0 13.0 0.00 0.00 0.00 59 1010.5
20260505220318 74 207 7.0 13.0 0.00 0.00 0.00 59 1010.6
20260505220230 74 196 6.0 12.0 0.00 0.00 0.00 59 1010.6
20260505220117 74 186 7.0 12.0 0.00 0.00 0.00 59 1010.6
20260505220045 74 203 6.0 14.0 0.00 0.00 0.00 59 1010.6
20260505215910 74 148 5.0 14.0 0.00 0.00 0.00 59 1010.7
20260505215817 74 166 7.0 14.0 0.00 0.00 0.00 58 1010.7
20260505215725 74 188 8.0 14.0 0.00 0.00 0.00 58 1010.7
20260505215637 74 193 9.0 14.0 0.00 0.00 0.00 58 1010.7
20260505215522 74 192 9.0 14.0 0.00 0.00 0.00 58 1010.7
20260505215410 74 169 9.0 14.0 0.00 0.00 0.00 58 1010.8
20260505215338 74 196 9.0 14.0 0.00 0.00 0.00 58 1010.8
20260505215224 74 174 10.0 14.0 0.00 0.00 0.00 57 1010.8
20260505215111 74 198 9.0 15.0 0.00 0.00 0.00 58 1010.7
20260505215046 74 180 7.0 17.0 0.00 0.00 0.00 58 1010.7
20260505214820 74 223 7.0 17.0 0.00 0.00 0.00 58 1010.8
20260505214748 74 173 6.0 17.0 0.00 0.00 0.00 58 1010.7
20260505214614 74 192 5.0 17.0 0.00 0.00 0.00 57 1010.7
20260505214521 74 175 6.0 19.0 0.00 0.00 0.00 58 1010.7
20260505214432 74 169 9.0 19.0 0.00 0.00 0.00 57 1010.6
20260505214317 74 188 10.0 19.0 0.00 0.00 0.00 57 1010.7
20260505214224 74 180 11.0 19.0 0.00 0.00 0.00 57 1010.7
20260505214112 74 172 12.0 19.0 0.00 0.00 0.00 57 1010.5
20260505214020 74 173 11.0 19.0 0.00 0.00 0.00 57 1010.5
20260505213948 74 164 12.0 19.0 0.00 0.00 0.00 56 1010.5
20260505213817 74 169 11.0 19.0 0.00 0.00 0.00 56 1010.6
20260505213724 74 195 10.0 19.0 0.00 0.00 0.00 56 1010.6
20260505213652 74 182 9.0 18.0 0.00 0.00 0.00 57 1010.5
20260505213602 74 170 9.0 18.0 0.00 0.00 0.00 56 1010.6
20260505213315 74 175 9.0 22.0 0.00 0.00 0.00 56 1010.6
20260505213225 74 200 9.0 22.0 0.00 0.00 0.00 57 1010.6
20260505213113 74 211 10.0 22.0 0.00 0.00 0.00 56 1010.6
20260505213019 74 169 11.0 22.0 0.00 0.00 0.00 56 1010.6
20260505212925 74 190 12.0 22.0 0.00 0.00 0.00 56 1010.6
20260505212813 74 186 10.0 22.0 0.00 0.00 0.00 56 1010.7
20260505212721 74 205 11.0 22.0 0.00 0.00 0.00 56 1010.7
20260505212613 74 184 13.0 22.0 0.00 0.00 0.00 55 1010.7
20260505212521 74 201 13.0 22.0 0.00 0.00 0.00 55 1010.7
20260505212427 74 186 12.0 21.0 0.00 0.00 0.00 56 1010.8
20260505212315 74 196 12.0 19.0 0.00 0.00 0.00 55 1010.6
20260505212223 74 207 13.0 19.0 0.00 0.00 0.00 56 1010.6
20260505212114 74 171 12.0 21.0 0.00 0.00 0.00 56 1010.7
20260505212045 74 208 12.0 21.0 0.00 0.00 0.00 56 1010.7
20260505211840 75 205 9.0 21.0 0.00 0.00 0.00 56 1010.6
20260505211725 75 204 8.0 21.0 0.00 0.00 0.00 56 1010.6
20260505211612 75 167 9.0 21.0 0.00 0.00 0.00 56 1010.7
20260505211523 75 192 9.0 21.0 0.00 0.00 0.00 56 1010.7
20260505211411 75 194 13.0 21.0 0.00 0.00 0.00 55 1010.6
20260505211319 75 196 14.0 21.0 0.00 0.00 0.00 55 1010.6
20260505211226 75 183 13.0 20.0 0.00 0.00 0.00 56 1010.6
20260505211115 75 208 11.0 19.0 0.00 0.00 0.00 56 1010.6
20260505211027 75 183 10.0 19.0 0.00 0.00 0.00 56 1010.6
20260505210913 75 202 12.0 19.0 0.00 0.00 0.00 56 1010.6
20260505210820 75 202 12.0 19.0 0.00 0.00 0.00 56 1010.6
20260505210728 75 188 12.0 20.0 0.00 0.00 0.00 56 1010.6
20260505210616 74 182 10.0 20.0 0.00 0.00 0.00 57 1010.6
20260505210551 74 191 10.0 20.0 0.00 0.00 0.00 57 1010.6
20260505210326 74 159 9.0 20.0 0.00 0.00 0.00 56 1010.5
20260505210213 74 191 10.0 20.0 0.00 0.00 0.00 56 1010.5
20260505210120 74 197 11.0 20.0 0.00 0.00 0.00 55 1010.5
20260505210027 74 169 9.0 20.0 0.00 0.00 0.00 55 1010.6
20260505205919 74 174 8.0 17.0 0.00 0.00 0.00 57 1010.6
20260505205825 74 221 8.0 17.0 0.00 0.00 0.00 56 1010.6
20260505205713 74 195 8.0 17.0 0.00 0.00 0.00 56 1010.5
20260505205620 74 208 9.0 18.0 0.00 0.00 0.00 55 1010.5
20260505205527 74 183 11.0 18.0 0.00 0.00 0.00 55 1010.5
20260505205418 74 207 10.0 18.0 0.00 0.00 0.00 55 1010.5
20260505205346 74 173 9.0 18.0 0.00 0.00 0.00 55 1010.5
20260505205212 74 191 8.0 18.0 0.00 0.00 0.00 55 1010.4
20260505205119 74 185 9.0 18.0 0.00 0.00 0.00 55 1010.4
20260505205050 74 184 10.0 18.0 0.00 0.00 0.00 56 1010.4
20260505204829 73 192 10.0 18.0 0.00 0.00 0.00 56 1010.3
20260505204714 73 179 9.0 18.0 0.00 0.00 0.00 57 1010.2
20260505204623 73 173 10.0 18.0 0.00 0.00 0.00 57 1010.2
20260505204510 73 190 9.0 18.0 0.00 0.00 0.00 57 1010.2
20260505204416 73 176 8.0 18.0 0.00 0.00 0.00 57 1010.3
20260505204325 74 180 7.0 18.0 0.00 0.00 0.00 58 1010.3
20260505204218 74 182 7.0 18.0 0.00 0.00 0.00 57 1010.3
20260505204124 74 148 7.0 18.0 0.00 0.00 0.00 57 1010.3
20260505204012 74 121 6.0 18.0 0.00 0.00 0.00 57 1010.2
20260505203920 74 153 7.0 18.0 0.00 0.00 0.00 57 1010.2
20260505203827 74 134 10.0 18.0 0.00 0.00 0.00 57 1010.2
20260505203720 74 143 10.0 18.0 0.00 0.00 0.00 57 1010.3
20260505203627 74 132 9.0 18.0 0.00 0.00 0.00 59 1010.3
20260505203557 74 123 7.0 18.0 0.00 0.00 0.00 59 1010.2
20260505203311 74 189 9.0 18.0 0.00 0.00 0.00 57 1010.3
20260505203239 75 192 9.0 18.0 0.00 0.00 0.00 58 1010.3
20260505203129 75 195 10.0 18.0 0.00 0.00 0.00 57 1010.3
20260505203036 75 198 10.0 18.0 0.00 0.00 0.00 56 1010.4
20260505202921 75 197 8.0 18.0 0.00 0.00 0.00 56 1010.4
20260505202849 75 238 9.0 18.0 0.00 0.00 0.00 54 1010.3
20260505202735 75 145 9.0 18.0 0.00 0.00 0.00 53 1010.4
20260505202621 75 182 8.0 20.0 0.00 0.00 0.00 54 1010.4
20260505202528 75 154 9.0 20.0 0.00 0.00 0.00 53 1010.3
20260505202420 75 200 11.0 20.0 0.00 0.00 0.00 54 1010.4
20260505202347 75 142 11.0 20.0 0.00 0.00 0.00 53 1010.4
20260505202233 75 122 10.0 16.0 0.00 0.00 0.00 54 1010.4
20260505202140 75 155 10.0 15.0 0.00 0.00 0.00 54 1010.4
20260505202109 75 164 9.0 15.0 0.00 0.00 0.00 53 1010.3
20260505201823 74 209 8.0 15.0 0.00 0.00 0.00 53 1010.3
20260505201714 74 163 8.0 15.0 0.00 0.00 0.00 54 1010.5
20260505201642 74 190 7.0 15.0 0.00 0.00 0.00 53 1010.5
20260505201527 74 138 7.0 15.0 0.00 0.00 0.00 53 1010.5
20260505201434 74 179 8.0 15.0 0.00 0.00 0.00 53 1010.5
20260505201321 74 122 8.0 15.0 0.00 0.00 0.00 54 1010.5
20260505201248 74 145 9.0 15.0 0.00 0.00 0.00 53 1010.5
20260505201120 74 180 9.0 15.0 0.00 0.00 0.00 53 1010.5
20260505201028 74 158 9.0 15.0 0.00 0.00 0.00 54 1010.5
20260505200915 74 148 8.0 12.0 0.00 0.00 0.00 54 1010.5
20260505200822 74 162 7.0 14.0 0.00 0.00 0.00 54 1010.5
20260505200728 74 158 7.0 14.0 0.00 0.00 0.00 54 1010.5
20260505200636 74 176 7.0 14.0 0.00 0.00 0.00 54 1010.5
20260505200549 74 170 7.0 14.0 0.00 0.00 0.00 54 1010.8
20260505200323 74 136 6.0 14.0 0.00 0.00 0.00 55 1010.5
20260505200211 73 182 6.0 14.0 0.00 0.00 0.00 55 1010.5
20260505200117 73 150 6.0 14.0 0.00 0.00 0.00 54 1010.5
20260505200044 73 202 7.0 14.0 0.00 0.00 0.00 54 1010.5
20260505195915 73 153 7.0 14.0 0.00 0.00 0.00 55 1010.6
20260505195822 73 146 6.0 10.0 0.00 0.00 0.00 54 1010.6
20260505195729 73 171 7.0 14.0 0.00 0.00 0.00 54 1010.8
20260505195617 73 147 7.0 14.0 0.00 0.00 0.00 54 1010.8
20260505195544 74 168 8.0 14.0 0.00 0.00 0.00 54 1010.8
20260505195410 73 146 6.0 14.0 0.00 0.00 0.00 54 1010.8
20260505195339 74 169 6.0 14.0 0.00 0.00 0.00 54 1010.7
20260505195228 74 76 8.0 14.0 0.00 0.00 0.00 54 1010.7
20260505195116 74 161 9.0 14.0 0.00 0.00 0.00 53 1010.7
20260505195046 74 171 8.0 14.0 0.00 0.00 0.00 53 1010.7
20260505194819 74 185 6.0 10.0 0.00 0.00 0.00 53 1010.7
20260505194710 74 113 8.0 10.0 0.00 0.00 0.00 54 1010.7
20260505194637 74 156 7.0 10.0 0.00 0.00 0.00 53 1010.7
20260505194543 74 166 6.0 12.0 0.00 0.00 0.00 54 1010.7
20260505194429 74 146 6.0 14.0 0.00 0.00 0.00 53 1010.6
20260505194318 74 170 6.0 14.0 0.00 0.00 0.00 53 1010.7
20260505194226 74 159 6.0 14.0 0.00 0.00 0.00 53 1010.7
20260505194132 74 157 6.0 14.0 0.00 0.00 0.00 53 1010.6
20260505194023 74 148 6.0 15.0 0.00 0.00 0.00 53 1010.6
20260505193911 74 140 6.0 15.0 0.00 0.00 0.00 53 1010.5
20260505193839 74 156 6.0 15.0 0.00 0.00 0.00 53 1010.5
20260505193724 74 192 8.0 15.0 0.00 0.00 0.00 52 1010.5
20260505193612 74 180 7.0 15.0 0.00 0.00 0.00 53 1010.5
20260505193547 74 141 7.0 15.0 0.00 0.00 0.00 52 1010.5
20260505193320 74 161 9.0 15.0 0.00 0.00 0.00 52 1010.6
20260505193228 74 163 10.0 15.0 0.00 0.00 0.00 52 1010.6
20260505193115 74 132 8.0 14.0 0.00 0.00 0.00 53 1010.7
20260505193022 74 198 8.0 14.0 0.00 0.00 0.00 53 1010.7
20260505192915 74 159 7.0 14.0 0.00 0.00 0.00 54 1010.8
20260505192822 74 162 6.0 14.0 0.00 0.00 0.00 53 1010.8
20260505192729 74 190 5.0 14.0 0.00 0.00 0.00 53 1010.8
20260505192617 74 90 6.0 14.0 0.00 0.00 0.00 52 1010.8
20260505192524 74 194 7.0 14.0 0.00 0.00 0.00 52 1010.8
20260505192416 74 163 7.0 15.0 0.00 0.00 0.00 51 1010.8
20260505192323 74 158 6.0 16.0 0.00 0.00 0.00 53 1010.8
20260505192231 74 131 6.0 16.0 0.00 0.00 0.00 51 1010.7
20260505192137 74 158 7.0 16.0 0.00 0.00 0.00 51 1010.7
20260505192046 74 184 6.0 16.0 0.00 0.00 0.00 51 1010.7
20260505191821 75 144 5.0 16.0 0.00 0.00 0.00 49 1011.0
20260505191713 75 153 8.0 16.0 0.00 0.00 0.00 48 1011.3
20260505191620 75 158 10.0 16.0 0.00 0.00 0.00 48 1011.3
20260505191529 75 196 11.0 16.0 0.00 0.00 0.00 48 1011.3
20260505191417 75 199 8.0 16.0 0.00 0.00 0.00 47 1011.6
20260505191325 75 180 6.0 13.0 0.00 0.00 0.00 48 1011.6
20260505191216 75 195 8.0 13.0 0.00 0.00 0.00 48 1011.8
20260505191123 75 182 8.0 13.0 0.00 0.00 0.00 47 1011.8
20260505191010 75 188 9.0 13.0 0.00 0.00 0.00 47 1011.9
20260505190919 75 165 8.0 13.0 0.00 0.00 0.00 47 1012.0
20260505190825 75 197 7.0 15.0 0.00 0.00 0.00 47 1012.0
20260505190718 75 217 8.0 15.0 0.00 0.00 0.00 46 1012.1
20260505190645 75 180 8.0 15.0 0.00 0.00 0.00 46 1012.1
20260505190615 76 175 8.0 15.0 0.00 0.00 0.00 47 1012.1
20260505190328 76 186 4.0 15.0 0.00 0.00 0.00 47 1012.2
20260505190213 76 144 5.0 15.0 0.00 0.00 0.00 46 1012.4
20260505190125 76 184 8.0 17.0 0.00 0.00 0.00 46 1012.4
20260505190013 76 193 9.0 17.0 0.00 0.00 0.00 46 1012.4
20260505185921 76 191 8.0 17.0 0.00 0.00 0.00 47 1012.4
20260505185829 76 219 7.0 17.0 0.00 0.00 0.00 47 1012.4
20260505185715 76 260 5.0 17.0 0.00 0.00 0.00 46 1012.4
20260505185624 76 188 6.0 17.0 0.00 0.00 0.00 47 1012.4
20260505185514 76 144 8.0 17.0 0.00 0.00 0.00 45 1012.4
20260505185422 76 207 9.0 17.0 0.00 0.00 0.00 45 1012.4
20260505185329 76 192 9.0 20.0 0.00 0.00 0.00 46 1012.5
20260505185216 76 187 7.0 20.0 0.00 0.00 0.00 46 1012.5
20260505185123 76 203 7.0 20.0 0.00 0.00 0.00 46 1012.5
20260505185058 76 186 7.0 20.0 0.00 0.00 0.00 46 1012.5
20260505184811 76 247 6.0 20.0 0.00 0.00 0.00 46 1012.5
20260505184719 76 190 8.0 20.0 0.00 0.00 0.00 44 1012.5
20260505184626 76 221 10.0 20.0 0.00 0.00 0.00 44 1012.5
20260505184518 77 201 12.0 20.0 0.00 0.00 0.00 44 1012.5
20260505184426 77 229 11.0 20.0 0.00 0.00 0.00 44 1012.5
20260505184315 77 184 8.0 14.0 0.00 0.00 0.00 44 1012.5
20260505184223 77 196 7.0 17.0 0.00 0.00 0.00 43 1012.5
20260505184110 77 227 7.0 17.0 0.00 0.00 0.00 43 1012.5
20260505184017 77 179 9.0 17.0 0.00 0.00 0.00 42 1012.5
20260505183928 77 162 10.0 17.0 0.00 0.00 0.00 43 1012.5
20260505183835 77 196 8.0 17.0 0.00 0.00 0.00 43 1012.6
20260505183721 77 167 7.0 17.0 0.00 0.00 0.00 45 1012.6
20260505183610 77 180 10.0 17.0 0.00 0.00 0.00 43 1012.6
20260505183544 77 182 10.0 17.0 0.00 0.00 0.00 43 1012.6
20260505183319 77 180 10.0 17.0 0.00 0.00 0.00 42 1012.5
20260505183226 77 197 9.0 16.0 0.00 0.00 0.00 43 1012.5
20260505183114 77 180 10.0 16.0 0.00 0.00 0.00 44 1012.5
20260505183021 77 200 10.0 16.0 0.00 0.00 0.00 44 1012.5
20260505182930 77 241 10.0 18.0 0.00 0.00 0.00 45 1012.4
20260505182821 77 184 10.0 16.0 0.00 0.00 0.00 44 1012.5
20260505182728 77 169 9.0 15.0 0.00 0.00 0.00 44 1012.5
20260505182616 77 215 8.0 21.0 0.00 0.00 0.00 44 1012.4
20260505182523 77 225 6.0 21.0 0.00 0.00 0.00 45 1012.4
20260505182410 77 216 6.0 22.0 0.00 0.00 0.00 45 1012.6
20260505182321 77 195 8.0 22.0 0.00 0.00 0.00 45 1012.6
20260505182229 77 214 9.0 22.0 0.00 0.00 0.00 44 1012.5
20260505182136 77 199 11.0 22.0 0.00 0.00 0.00 44 1012.6
20260505182106 77 198 11.0 22.0 0.00 0.00 0.00 43 1012.6
20260505181818 77 186 11.0 22.0 0.00 0.00 0.00 42 1012.7
20260505181710 77 200 11.0 22.0 0.00 0.00 0.00 41 1012.7
20260505181616 77 150 12.0 22.0 0.00 0.00 0.00 43 1012.7
20260505181524 77 161 10.0 22.0 0.00 0.00 0.00 42 1012.7
20260505181412 77 184 7.0 19.0 0.00 0.00 0.00 43 1012.6
20260505181318 77 110 6.0 19.0 0.00 0.00 0.00 41 1012.7
20260505181246 77 163 8.0 19.0 0.00 0.00 0.00 41 1012.7
20260505181136 77 190 11.0 19.0 0.00 0.00 0.00 42 1012.8
20260505181022 77 184 14.0 19.0 0.00 0.00 0.00 41 1012.8
20260505180910 77 184 11.0 19.0 0.00 0.00 0.00 41 1012.8
20260505180816 77 199 9.0 19.0 0.00 0.00 0.00 43 1012.8
20260505180745 77 209 10.0 19.0 0.00 0.00 0.00 42 1012.8
20260505180631 77 201 11.0 19.0 0.00 0.00 0.00 43 1012.8
20260505180544 77 187 10.0 20.0 0.00 0.00 0.00 43 1012.8
20260505180318 77 187 10.0 16.0 0.00 0.00 0.00 42 1012.8
20260505180247 77 217 10.0 16.0 0.00 0.00 0.00 43 1012.8
20260505180114 77 201 9.0 18.0 0.00 0.00 0.00 43 1012.8
20260505180020 77 223 7.0 18.0 0.00 0.00 0.00 43 1012.8
20260505175912 77 186 8.0 18.0 0.00 0.00 0.00 43 1012.7
20260505175821 77 202 8.0 18.0 0.00 0.00 0.00 44 1012.7
20260505175729 77 213 10.0 18.0 0.00 0.00 0.00 44 1012.7
20260505175615 76 264 9.0 18.0 0.00 0.00 0.00 43 1012.5
20260505175523 76 221 8.0 18.0 0.00 0.00 0.00 45 1012.5
20260505175430 76 200 9.0 18.0 0.00 0.00 0.00 44 1012.6
20260505175321 76 182 11.0 18.0 0.00 0.00 0.00 42 1012.6
20260505175228 76 209 10.0 18.0 0.00 0.00 0.00 43 1012.7
20260505175116 76 173 10.0 18.0 0.00 0.00 0.00 45 1012.5
20260505175046 76 132 11.0 18.0 0.00 0.00 0.00 44 1012.5
20260505174824 76 188 11.0 18.0 0.00 0.00 0.00 44 1012.6
20260505174710 76 157 10.0 19.0 0.00 0.00 0.00 45 1012.6
20260505174618 76 219 10.0 19.0 0.00 0.00 0.00 43 1012.6
20260505174545 76 223 9.0 19.0 0.00 0.00 0.00 44 1012.6
20260505174412 76 258 7.0 19.0 0.00 0.00 0.00 46 1012.5
20260505174319 76 200 6.0 19.0 0.00 0.00 0.00 46 1012.6
20260505174230 76 214 5.0 19.0 0.00 0.00 0.00 46 1012.6
20260505174117 76 238 6.0 19.0 0.00 0.00 0.00 48 1012.7
20260505174026 76 181 8.0 19.0 0.00 0.00 0.00 47 1012.7
20260505173912 76 211 10.0 20.0 0.00 0.00 0.00 46 1012.7
20260505173820 76 180 10.0 20.0 0.00 0.00 0.00 47 1012.7
20260505173746 76 194 11.0 20.0 0.00 0.00 0.00 46 1012.7
20260505173637 76 177 9.0 20.0 0.00 0.00 0.00 49 1012.7
20260505173607 76 145 8.0 12.0 0.00 0.00 0.00 46 1012.7
20260505173320 76 240 8.0 12.0 0.00 0.00 0.00 46 1012.7
20260505173228 76 214 9.0 14.0 0.00 0.00 0.00 46 1012.8
20260505173115 76 186 9.0 16.0 0.00 0.00 0.00 46 1012.8
20260505173026 76 197 8.0 16.0 0.00 0.00 0.00 46 1012.8
20260505172913 76 187 7.0 16.0 0.00 0.00 0.00 45 1012.8
20260505172822 76 205 8.0 16.0 0.00 0.00 0.00 46 1012.8
20260505172749 76 267 8.0 16.0 0.00 0.00 0.00 46 1012.8
20260505172615 76 267 7.0 16.0 0.00 0.00 0.00 45 1012.8
20260505172523 76 165 9.0 20.0 0.00 0.00 0.00 45 1012.8
20260505172434 76 175 11.0 20.0 0.00 0.00 0.00 44 1012.8
20260505172321 76 211 11.0 20.0 0.00 0.00 0.00 45 1012.8
20260505172227 76 206 9.0 20.0 0.00 0.00 0.00 45 1012.9
20260505172115 76 247 8.0 20.0 0.00 0.00 0.00 44 1012.8
20260505172051 76 211 8.0 20.0 0.00 0.00 0.00 43 1012.8
20260505171844 76 246 9.0 20.0 0.00 0.00 0.00 43 1012.9
20260505171710 76 199 9.0 20.0 0.00 0.00 0.00 44 1013.0
20260505171617 76 186 9.0 14.0 0.00 0.00 0.00 44 1013.0
20260505171526 76 206 10.0 14.0 0.00 0.00 0.00 44 1013.0
20260505171413 77 276 8.0 15.0 0.00 0.00 0.00 46 1013.0
20260505171325 77 228 6.0 14.0 0.00 0.00 0.00 46 1013.0
20260505171232 77 204 8.0 14.0 0.00 0.00 0.00 46 1013.0
20260505171120 77 329 8.0 14.0 0.00 0.00 0.00 48 1013.0
20260505171028 77 184 6.0 14.0 0.00 0.00 0.00 50 1013.1
20260505170915 76 142 7.0 14.0 0.00 0.00 0.00 48 1013.0
20260505170843 76 196 9.0 14.0 0.00 0.00 0.00 48 1013.0
20260505170714 76 249 11.0 17.0 0.00 0.00 0.00 50 1013.1
20260505170621 76 179 9.0 16.0 0.00 0.00 0.00 48 1013.1
20260505170551 76 121 7.0 16.0 0.00 0.00 0.00 48 1013.0
20260505170324 76 195 6.0 14.0 0.00 0.00 0.00 48 1013.2
20260505170210 76 151 7.0 14.0 0.00 0.00 0.00 51 1013.3
20260505170122 76 197 7.0 14.0 0.00 0.00 0.00 49 1013.3
20260505170029 76 208 6.0 14.0 0.00 0.00 0.00 49 1013.3
20260505165936 76 113 8.0 14.0 0.00 0.00 0.00 48 1013.3
20260505165821 76 188 9.0 14.0 0.00 0.00 0.00 48 1013.3
20260505165747 76 214 9.0 17.0 0.00 0.00 0.00 50 1013.3
20260505165614 76 175 8.0 17.0 0.00 0.00 0.00 49 1013.2
20260505165541 76 152 7.0 17.0 0.00 0.00 0.00 49 1013.2
20260505165412 76 163 8.0 17.0 0.00 0.00 0.00 50 1013.2
20260505165318 76 155 8.0 17.0 0.00 0.00 0.00 49 1013.2
20260505165225 76 132 9.0 17.0 0.00 0.00 0.00 49 1013.2
20260505165112 76 165 8.0 17.0 0.00 0.00 0.00 50 1013.2
20260505165049 76 149 8.0 17.0 0.00 0.00 0.00 50 1013.2
20260505164823 75 142 8.0 17.0 0.00 0.00 0.00 50 1013.4
20260505164729 75 172 8.0 14.0 0.00 0.00 0.00 50 1013.4
20260505164617 75 188 10.0 14.0 0.00 0.00 0.00 50 1013.4
20260505164523 75 215 10.0 14.0 0.00 0.00 0.00 50 1013.4
20260505164410 75 189 9.0 14.0 0.00 0.00 0.00 51 1013.5
20260505164321 75 190 8.0 14.0 0.00 0.00 0.00 50 1013.5
20260505164229 75 188 7.0 14.0 0.00 0.00 0.00 51 1013.4
20260505164116 75 140 8.0 14.0 0.00 0.00 0.00 51 1013.3
20260505164025 75 173 9.0 13.0 0.00 0.00 0.00 51 1013.3
20260505163912 75 158 8.0 17.0 0.00 0.00 0.00 52 1013.3
20260505163823 75 157 8.0 17.0 0.00 0.00 0.00 54 1013.3
20260505163711 75 194 7.0 17.0 0.00 0.00 0.00 56 1013.2
20260505163618 74 161 7.0 17.0 0.00 0.00 0.00 57 1013.2
20260505163548 74 153 8.0 17.0 0.00 0.00 0.00 54 1013.2
20260505163322 74 200 8.0 17.0 0.00 0.00 0.00 54 1013.4
20260505163213 74 223 8.0 17.0 0.00 0.00 0.00 54 1013.3
20260505163121 74 196 10.0 17.0 0.00 0.00 0.00 55 1013.3
20260505163048 74 171 9.0 16.0 0.00 0.00 0.00 54 1013.3
20260505162915 74 188 6.0 14.0 0.00 0.00 0.00 55 1013.4
20260505162822 74 232 6.0 13.0 0.00 0.00 0.00 54 1013.4
20260505162715 74 187 6.0 13.0 0.00 0.00 0.00 55 1013.5
20260505162624 74 217 5.0 13.0 0.00 0.00 0.00 56 1013.5
20260505162511 74 182 7.0 13.0 0.00 0.00 0.00 55 1013.4
20260505162420 74 199 8.0 13.0 0.00 0.00 0.00 56 1013.4
20260505162328 74 213 8.0 13.0 0.00 0.00 0.00 54 1013.4
20260505162235 74 159 8.0 14.0 0.00 0.00 0.00 55 1013.3
20260505162126 74 234 8.0 14.0 0.00 0.00 0.00 54 1013.3
20260505162056 74 209 8.0 16.0 0.00 0.00 0.00 55 1013.4
20260505161851 74 163 7.0 16.0 0.00 0.00 0.00 55 1013.4
20260505161716 74 234 8.0 16.0 0.00 0.00 0.00 56 1013.5
20260505161624 74 194 8.0 16.0 0.00 0.00 0.00 55 1013.5
20260505161515 74 223 7.0 16.0 0.00 0.00 0.00 54 1013.4
20260505161443 74 203 9.0 16.0 0.00 0.00 0.00 54 1013.4
20260505161310 74 174 9.0 16.0 0.00 0.00 0.00 54 1013.4
20260505161217 74 200 7.0 16.0 0.00 0.00 0.00 56 1013.4
20260505161124 74 204 6.0 14.0 0.00 0.00 0.00 56 1013.4
20260505161031 74 200 8.0 16.0 0.00 0.00 0.00 55 1013.2
20260505160923 74 205 8.0 16.0 0.00 0.00 0.00 55 1013.2
20260505160810 74 198 8.0 16.0 0.00 0.00 0.00 55 1013.3
20260505160737 74 225 8.0 16.0 0.00 0.00 0.00 55 1013.2
20260505160623 74 206 7.0 16.0 0.00 0.00 0.00 55 1013.2
20260505160551 74 251 7.0 16.0 0.00 0.00 0.00 55 1013.2
20260505160345 74 221 9.0 16.0 0.00 0.00 0.00 54 1013.2
20260505160235 74 197 9.0 16.0 0.00 0.00 0.00 54 1013.3
20260505160122 74 180 8.0 17.0 0.00 0.00 0.00 54 1013.3
20260505153321 72 184 7.0 13.0 0.00 0.00 0.00 56 1013.4
20260505153211 72 171 6.0 12.0 0.00 0.00 0.00 55 1013.3
20260505153119 72 186 6.0 12.0 0.00 0.00 0.00 55 1013.2
20260505153025 72 198 7.0 12.0 0.00 0.00 0.00 55 1013.2
20260505152914 72 259 7.0 12.0 0.00 0.00 0.00 55 1013.2
20260505152822 72 195 6.0 11.0 0.00 0.00 0.00 55 1013.2
20260505152712 72 287 5.0 11.0 0.00 0.00 0.00 60 1013.2
20260505152620 72 204 5.0 11.0 0.00 0.00 0.00 59 1013.2
20260505152527 72 175 5.0 11.0 0.00 0.00 0.00 58 1013.2
20260505152414 72 196 6.0 11.0 0.00 0.00 0.00 58 1013.2
20260505152323 72 175 6.0 11.0 0.00 0.00 0.00 57 1013.2
20260505152230 72 188 6.0 11.0 0.00 0.00 0.00 56 1013.2
20260505152157 72 189 7.0 11.0 0.00 0.00 0.00 56 1013.3
20260505152111 72 184 7.0 12.0 0.00 0.00 0.00 59 1013.1
20260505151823 72 191 7.0 11.0 0.00 0.00 0.00 58 1013.2
20260505151712 72 167 6.0 10.0 0.00 0.00 0.00 58 1013.2
20260505151638 72 182 6.0 10.0 0.00 0.00 0.00 59 1013.3
20260505151524 72 183 5.0 12.0 0.00 0.00 0.00 59 1013.3
20260505151415 72 238 5.0 12.0 0.00 0.00 0.00 60 1013.3
20260505151323 72 178 6.0 12.0 0.00 0.00 0.00 60 1013.3
20260505151250 72 199 6.0 11.0 0.00 0.00 0.00 61 1013.3
20260505151117 71 178 6.0 11.0 0.00 0.00 0.00 60 1013.3
20260505151023 71 192 5.0 11.0 0.00 0.00 0.00 62 1013.3
20260505150931 71 208 6.0 11.0 0.00 0.00 0.00 62 1013.2
20260505150820 71 112 8.0 11.0 0.00 0.00 0.00 62 1013.2
20260505150748 71 138 8.0 11.0 0.00 0.00 0.00 62 1013.2
20260505150614 71 123 8.0 12.0 0.00 0.00 0.00 62 1013.2
20260505150544 71 117 7.0 11.0 0.00 0.00 0.00 63 1013.2
20260505150315 71 221 4.0 11.0 0.00 0.00 0.00 65 1013.4
20260505150248 71 155 4.0 11.0 0.00 0.00 0.00 64 1013.4
20260505150134 71 178 4.0 11.0 0.00 0.00 0.00 63 1013.5
20260505140625 66 214 6.0 12.0 0.00 0.00 0.00 71 1013.4
20260505140601 66 180 6.0 12.0 0.00 0.00 0.00 70 1013.5
20260505140335 66 156 8.0 12.0 0.00 0.00 0.00 70 1013.5
20260505140221 66 177 8.0 12.0 0.00 0.00 0.00 70 1013.5
20260505140128 66 213 7.0 13.0 0.00 0.00 0.00 70 1013.5
20260505130223 64 138 6.0 10.0 0.00 0.00 0.00 72 1013.5
20260505130111 63 202 5.0 11.0 0.00 0.00 0.00 73 1013.4
20260505124816 63 189 6.0 9.0 0.00 0.00 0.00 72 1013.1
20260505124744 63 188 6.0 9.0 0.00 0.00 0.00 73 1013.1
20260505124610 63 178 6.0 9.0 0.00 0.00 0.00 72 1013.0
20260505124515 63 173 5.0 10.0 0.00 0.00 0.00 73 1013.0
20260505124441 63 167 5.0 8.0 0.00 0.00 0.00 73 1013.0
20260505124327 63 174 4.0 8.0 0.00 0.00 0.00 72 1013.1
20260505124214 63 143 4.0 8.0 0.00 0.00 0.00 73 1013.1
20260505124127 63 146 4.0 8.0 0.00 0.00 0.00 73 1013.1
20260505124013 63 134 3.0 8.0 0.00 0.00 0.00 73 1013.1
20260505123919 63 169 3.0 8.0 0.00 0.00 0.00 73 1013.1
20260505123827 62 156 4.0 8.0 0.00 0.00 0.00 73 1013.1
20260505123715 62 152 4.0 8.0 0.00 0.00 0.00 73 1013.1
20260505123623 62 138 3.0 8.0 0.00 0.00 0.00 73 1013.1
20260505123558 62 173 3.0 7.0 0.00 0.00 0.00 74 1013.2
20260505123311 62 200 4.0 7.0 0.00 0.00 0.00 74 1013.1
20260505123238 62 191 4.0 7.0 0.00 0.00 0.00 74 1013.1
20260505123125 62 182 5.0 9.0 0.00 0.00 0.00 74 1013.1
20260505123017 62 155 5.0 9.0 0.00 0.00 0.00 75 1013.1
20260505122925 62 117 4.0 9.0 0.00 0.00 0.00 74 1013.1
20260505122811 62 168 2.0 9.0 0.00 0.00 0.00 75 1013.0
20260505122739 61 190 3.0 9.0 0.00 0.00 0.00 75 1013.1
20260505122624 61 144 3.0 9.0 0.00 0.00 0.00 75 1013.1
20260505122510 61 175 4.0 9.0 0.00 0.00 0.00 76 1013.1
20260505122420 61 149 5.0 9.0 0.00 0.00 0.00 75 1013.1
20260505122328 61 134 4.0 9.0 0.00 0.00 0.00 75 1013.1
20260505122235 61 149 3.0 7.0 0.00 0.00 0.00 75 1013.1
20260505122122 61 157 3.0 7.0 0.00 0.00 0.00 75 1013.1
20260505122053 61 147 3.0 7.0 0.00 0.00 0.00 76 1013.1
20260505121810 60 148 3.0 7.0 0.00 0.00 0.00 76 1013.0
20260505121717 60 190 3.0 7.0 0.00 0.00 0.00 76 1013.1
20260505121625 60 150 4.0 7.0 0.00 0.00 0.00 76 1013.1
20260505121512 60 186 4.0 6.0 0.00 0.00 0.00 77 1013.1
20260505121439 60 153 4.0 6.0 0.00 0.00 0.00 77 1013.1
20260505121325 60 159 3.0 6.0 0.00 0.00 0.00 77 1013.1
20260505121217 60 156 3.0 6.0 0.00 0.00 0.00 77 1013.1
20260505121124 60 163 3.0 6.0 0.00 0.00 0.00 77 1013.1
20260505121011 59 192 3.0 4.0 0.00 0.00 0.00 78 1013.0
20260505120919 59 170 3.0 5.0 0.00 0.00 0.00 78 1012.9
20260505120825 59 157 3.0 5.0 0.00 0.00 0.00 78 1012.9
20260505120718 59 142 2.0 5.0 0.00 0.00 0.00 78 1013.0
20260505120646 59 117 1.0 5.0 0.00 0.00 0.00 78 1013.0
20260505120616 59 156 2.0 5.0 0.00 0.00 0.00 77 1013.0
20260505120310 59 189 3.0 5.0 0.00 0.00 0.00 77 1013.1
20260505120218 59 182 3.0 5.0 0.00 0.00 0.00 77 1013.1
20260505120129 59 207 3.0 5.0 0.00 0.00 0.00 77 1013.1
20260505120036 59 198 3.0 5.0 0.00 0.00 0.00 77 1013.1
20260505115923 59 171 3.0 5.0 0.00 0.00 0.00 77 1013.1
20260505115810 59 182 2.0 3.0 0.00 0.00 0.00 77 1013.1
20260505115717 59 178 2.0 3.0 0.00 0.00 0.00 77 1013.0
20260505115624 59 178 2.0 3.0 0.00 0.00 0.00 77 1013.0
20260505115535 59 154 1.0 3.0 0.00 0.00 0.00 77 1013.0
20260505115422 59 184 1.0 3.0 0.00 0.00 0.00 77 1013.0
20260505115310 59 168 1.0 5.0 0.00 0.00 0.00 77 1013.0
20260505115217 59 169 2.0 5.0 0.00 0.00 0.00 77 1012.9
20260505115125 59 170 2.0 5.0 0.00 0.00 0.00 77 1012.9
20260505115100 59 173 2.0 5.0 0.00 0.00 0.00 77 1012.8
20260505114814 59 152 1.0 5.0 0.00 0.00 0.00 77 1012.8
20260505114721 59 147 1.0 5.0 0.00 0.00 0.00 77 1012.8
20260505114648 59 170 2.0 5.0 0.00 0.00 0.00 77 1012.8
20260505114534 59 178 3.0 5.0 0.00 0.00 0.00 77 1012.7
20260505114419 59 151 3.0 5.0 0.00 0.00 0.00 77 1012.7
20260505114310 59 146 2.0 5.0 0.00 0.00 0.00 77 1012.6
20260505114217 59 156 2.0 5.0 0.00 0.00 0.00 77 1012.7
20260505114125 59 182 3.0 5.0 0.00 0.00 0.00 77 1012.7
20260505114013 59 148 3.0 5.0 0.00 0.00 0.00 77 1012.6
20260505113920 59 144 2.0 5.0 0.00 0.00 0.00 77 1012.6
20260505113827 59 149 2.0 5.0 0.00 0.00 0.00 77 1012.5
20260505113758 59 143 2.0 5.0 0.00 0.00 0.00 77 1012.5
20260505113705 59 145 2.0 5.0 0.00 0.00 0.00 77 1012.4
20260505113615 59 152 2.0 5.0 0.00 0.00 0.00 77 1012.4
20260505113325 59 150 3.0 5.0 0.00 0.00 0.00 78 1012.3
20260505113233 59 142 4.0 5.0 0.00 0.00 0.00 77 1012.3
20260505113120 59 148 3.0 4.0 0.00 0.00 0.00 78 1012.3
20260505113012 59 144 2.0 4.0 0.00 0.00 0.00 78 1012.2
20260505112920 59 132 2.0 4.0 0.00 0.00 0.00 78 1012.2
20260505112828 59 135 2.0 4.0 0.00 0.00 0.00 78 1012.2
20260505112736 59 143 3.0 5.0 0.00 0.00 0.00 77 1012.2
20260505112622 59 144 3.0 5.0 0.00 0.00 0.00 77 1012.2
20260505112511 59 142 3.0 4.0 0.00 0.00 0.00 77 1012.2
20260505112423 59 135 2.0 4.0 0.00 0.00 0.00 77 1012.2
20260505112311 59 138 2.0 4.0 0.00 0.00 0.00 77 1012.1
20260505112238 58 138 2.0 4.0 0.00 0.00 0.00 77 1012.1
20260505112146 59 138 2.0 4.0 0.00 0.00 0.00 77 1012.1
20260505112054 59 137 2.0 4.0 0.00 0.00 0.00 77 1012.1
20260505111812 58 130 2.0 3.0 0.00 0.00 0.00 77 1012.1
20260505111719 58 134 2.0 3.0 0.00 0.00 0.00 77 1012.2
20260505111626 58 128 2.0 3.0 0.00 0.00 0.00 77 1012.2
20260505111513 58 151 2.0 4.0 0.00 0.00 0.00 77 1012.2
20260505111421 58 151 2.0 4.0 0.00 0.00 0.00 77 1012.2
20260505111349 58 150 2.0 4.0 0.00 0.00 0.00 77 1012.3
20260505111239 58 144 2.0 4.0 0.00 0.00 0.00 77 1012.2
20260505111126 58 143 2.0 4.0 0.00 0.00 0.00 77 1012.2
20260505111012 58 153 2.0 4.0 0.00 0.00 0.00 77 1012.2
20260505110919 58 148 2.0 4.0 0.00 0.00 0.00 77 1012.2
20260505110826 58 145 2.0 4.0 0.00 0.00 0.00 77 1012.2
20260505110714 58 143 2.0 4.0 0.00 0.00 0.00 77 1012.1
20260505110645 58 111 2.0 4.0 0.00 0.00 0.00 77 1012.1
20260505110555 58 142 2.0 4.0 0.00 0.00 0.00 77 1012.1
20260505110348 58 146 1.0 3.0 0.00 0.00 0.00 77 1012.0
20260505110215 58 146 1.0 3.0 0.00 0.00 0.00 77 1012.0
20260505110122 58 146 1.0 3.0 0.00 0.00 0.00 77 1012.0
20260505102215 59 174 4.0 6.0 0.00 0.00 0.00 75 1011.6
20260505102121 59 173 4.0 6.0 0.00 0.00 0.00 75 1011.6
20260505102055 59 177 3.0 6.0 0.00 0.00 0.00 75 1011.8
20260505101809 59 202 3.0 6.0 0.00 0.00 0.00 74 1011.7
20260505101717 59 180 3.0 6.0 0.00 0.00 0.00 74 1011.6
20260505101643 59 186 3.0 6.0 0.00 0.00 0.00 74 1011.6
20260505101529 59 197 3.0 6.0 0.00 0.00 0.00 74 1011.5
20260505101437 59 170 4.0 6.0 0.00 0.00 0.00 74 1011.6
20260505101326 59 178 4.0 6.0 0.00 0.00 0.00 74 1011.6
20260505101215 59 216 3.0 5.0 0.00 0.00 0.00 74 1011.5
20260505101122 59 159 4.0 5.0 0.00 0.00 0.00 74 1011.5
20260505101010 59 180 4.0 5.0 0.00 0.00 0.00 74 1011.4
20260505100918 59 169 4.0 6.0 0.00 0.00 0.00 74 1011.4
20260505100824 59 182 3.0 6.0 0.00 0.00 0.00 74 1011.4
20260505100715 59 184 3.0 6.0 0.00 0.00 0.00 74 1011.4
20260505100624 59 171 2.0 6.0 0.00 0.00 0.00 74 1011.4
20260505100555 59 167 2.0 6.0 0.00 0.00 0.00 74 1011.4
20260505100328 59 210 3.0 6.0 0.00 0.00 0.00 74 1011.4
20260505100220 59 202 4.0 6.0 0.00 0.00 0.00 74 1011.5
20260505100128 59 180 4.0 6.0 0.00 0.00 0.00 74 1011.4
20260505100016 59 182 3.0 6.0 0.00 0.00 0.00 73 1011.5
20260505095924 59 171 3.0 6.0 0.00 0.00 0.00 73 1011.5
20260505095813 59 173 4.0 6.0 0.00 0.00 0.00 73 1011.6
20260505095724 59 194 3.0 6.0 0.00 0.00 0.00 73 1011.6
20260505095611 59 195 2.0 4.0 0.00 0.00 0.00 73 1011.5
20260505095518 59 189 2.0 4.0 0.00 0.00 0.00 73 1011.5
20260505095427 59 186 2.0 4.0 0.00 0.00 0.00 73 1011.5
20260505095313 59 201 2.0 4.0 0.00 0.00 0.00 73 1011.4
20260505095241 59 188 2.0 4.0 0.00 0.00 0.00 73 1011.4
20260505095131 59 198 2.0 4.0 0.00 0.00 0.00 73 1011.4
20260505095101 59 142 2.0 4.0 0.00 0.00 0.00 73 1011.4
20260505094815 59 200 1.0 4.0 0.00 0.00 0.00 73 1011.4
20260505094722 59 169 2.0 5.0 0.00 0.00 0.00 73 1011.4
20260505094631 59 184 2.0 5.0 0.00 0.00 0.00 73 1011.4
20260505094541 60 145 2.0 5.0 0.00 0.00 0.00 73 1011.4
20260505094426 59 161 1.0 5.0 0.00 0.00 0.00 73 1011.3
20260505094314 60 179 1.0 5.0 0.00 0.00 0.00 72 1011.3
20260505094222 60 173 1.0 5.0 0.00 0.00 0.00 72 1011.3
20260505094110 60 169 2.0 5.0 0.00 0.00 0.00 72 1011.3
20260505094017 60 196 3.0 5.0 0.00 0.00 0.00 72 1011.4
20260505093910 60 174 3.0 5.0 0.00 0.00 0.00 72 1011.4
20260505093817 60 200 3.0 5.0 0.00 0.00 0.00 72 1011.4
20260505093725 60 193 2.0 7.0 0.00 0.00 0.00 72 1011.4
20260505093631 60 179 2.0 8.0 0.00 0.00 0.00 72 1011.3
20260505093544 60 179 3.0 9.0 0.00 0.00 0.00 72 1011.3
20260505093318 60 193 3.0 9.0 0.00 0.00 0.00 72 1011.3
20260505093225 60 167 3.0 9.0 0.00 0.00 0.00 72 1011.3
20260505093113 60 159 4.0 9.0 0.00 0.00 0.00 72 1011.2
20260505093021 60 178 4.0 9.0 0.00 0.00 0.00 72 1011.2
20260505092950 60 140 4.0 9.0 0.00 0.00 0.00 72 1011.2
20260505092819 60 231 4.0 9.0 0.00 0.00 0.00 72 1011.1
20260505092727 60 189 5.0 9.0 0.00 0.00 0.00 71 1011.2
20260505092635 60 139 6.0 9.0 0.00 0.00 0.00 72 1011.1
20260505092542 60 150 5.0 9.0 0.00 0.00 0.00 72 1011.1
20260505092428 60 180 5.0 9.0 0.00 0.00 0.00 71 1011.1
20260505092317 60 163 4.0 10.0 0.00 0.00 0.00 71 1011.1
20260505092225 60 209 4.0 10.0 0.00 0.00 0.00 71 1011.1
20260505092157 60 165 5.0 10.0 0.00 0.00 0.00 71 1011.2
20260505092106 60 161 4.0 10.0 0.00 0.00 0.00 71 1011.2
20260505091818 60 198 4.0 10.0 0.00 0.00 0.00 71 1011.2
20260505091725 60 126 5.0 10.0 0.00 0.00 0.00 71 1011.2
20260505091612 60 165 5.0 10.0 0.00 0.00 0.00 71 1011.2
20260505091524 60 184 5.0 10.0 0.00 0.00 0.00 71 1011.2
20260505091433 60 140 4.0 9.0 0.00 0.00 0.00 71 1011.3
20260505091320 60 191 5.0 9.0 0.00 0.00 0.00 71 1011.3
20260505091228 60 178 4.0 9.0 0.00 0.00 0.00 72 1011.2
20260505091115 60 150 3.0 6.0 0.00 0.00 0.00 71 1011.4
20260505091022 60 176 3.0 6.0 0.00 0.00 0.00 71 1011.4
20260505090913 60 178 3.0 6.0 0.00 0.00 0.00 71 1011.4
20260505090821 60 162 3.0 7.0 0.00 0.00 0.00 71 1011.4
20260505090729 60 168 3.0 6.0 0.00 0.00 0.00 72 1011.4
20260505090616 60 162 3.0 6.0 0.00 0.00 0.00 72 1011.3
20260505090551 60 158 4.0 6.0 0.00 0.00 0.00 71 1011.3
20260505090325 60 153 4.0 7.0 0.00 0.00 0.00 71 1011.4
20260505090233 60 179 4.0 6.0 0.00 0.00 0.00 71 1011.4
20260505090119 60 178 3.0 6.0 0.00 0.00 0.00 71 1011.4
20260505090025 60 199 3.0 5.0 0.00 0.00 0.00 71 1011.4
20260505085913 60 192 3.0 6.0 0.00 0.00 0.00 71 1011.3
20260505085844 60 182 3.0 6.0 0.00 0.00 0.00 71 1011.3
20260505085710 60 188 3.0 6.0 0.00 0.00 0.00 71 1011.2
20260505085619 59 193 3.0 6.0 0.00 0.00 0.00 72 1011.2
20260505085526 59 164 3.0 6.0 0.00 0.00 0.00 72 1011.2
20260505085413 59 147 3.0 6.0 0.00 0.00 0.00 72 1011.3
20260505085320 59 142 3.0 6.0 0.00 0.00 0.00 72 1011.3
20260505085212 59 129 3.0 6.0 0.00 0.00 0.00 72 1011.3
20260505085119 59 173 3.0 6.0 0.00 0.00 0.00 72 1011.3
20260505085050 59 161 3.0 6.0 0.00 0.00 0.00 72 1011.3
20260505084824 59 175 3.0 6.0 0.00 0.00 0.00 72 1011.4
20260505084716 59 176 2.0 5.0 0.00 0.00 0.00 71 1011.3
20260505084624 59 183 2.0 5.0 0.00 0.00 0.00 72 1011.3
20260505084511 59 188 3.0 5.0 0.00 0.00 0.00 72 1011.4
20260505084438 59 181 3.0 5.0 0.00 0.00 0.00 72 1011.5
20260505084323 59 171 3.0 5.0 0.00 0.00 0.00 72 1011.5
20260505084211 59 156 3.0 5.0 0.00 0.00 0.00 72 1011.4
20260505084139 59 166 3.0 5.0 0.00 0.00 0.00 72 1011.4
20260505084028 59 204 3.0 5.0 0.00 0.00 0.00 72 1011.4
20260505083934 59 202 3.0 5.0 0.00 0.00 0.00 72 1011.4
20260505083821 59 190 3.0 5.0 0.00 0.00 0.00 72 1011.4
20260505083726 59 182 4.0 5.0 0.00 0.00 0.00 72 1011.4
20260505083614 59 178 3.0 5.0 0.00 0.00 0.00 72 1011.4
20260505083548 59 211 3.0 5.0 0.00 0.00 0.00 72 1011.4
20260505083341 59 177 3.0 5.0 0.00 0.00 0.00 72 1011.4
20260505083228 59 184 3.0 5.0 0.00 0.00 0.00 72 1011.4
20260505083136 59 183 3.0 5.0 0.00 0.00 0.00 72 1011.4
20260505083023 59 175 2.0 5.0 0.00 0.00 0.00 72 1011.4
20260505082910 59 207 3.0 5.0 0.00 0.00 0.00 72 1011.5
20260505082822 59 185 3.0 5.0 0.00 0.00 0.00 72 1011.5
20260505082709 59 172 4.0 5.0 0.00 0.00 0.00 72 1011.4
20260505082618 59 202 3.0 5.0 0.00 0.00 0.00 72 1011.5
20260505082526 59 196 3.0 5.0 0.00 0.00 0.00 72 1011.5
20260505082414 59 187 3.0 5.0 0.00 0.00 0.00 72 1011.3
20260505082343 59 183 2.0 6.0 0.00 0.00 0.00 72 1011.3
20260505082212 59 177 3.0 6.0 0.00 0.00 0.00 72 1011.4
20260505082140 59 180 3.0 5.0 0.00 0.00 0.00 72 1011.4
20260505082049 59 178 3.0 5.0 0.00 0.00 0.00 72 1011.4
20260505081824 59 153 2.0 4.0 0.00 0.00 0.00 72 1011.3
20260505081717 59 171 2.0 3.0 0.00 0.00 0.00 72 1011.3
20260505081624 59 171 2.0 3.0 0.00 0.00 0.00 72 1011.3
20260505081511 59 151 2.0 3.0 0.00 0.00 0.00 73 1011.4
20260505081418 59 151 2.0 3.0 0.00 0.00 0.00 73 1011.4
20260505081327 59 151 2.0 3.0 0.00 0.00 0.00 73 1011.4
20260505081215 59 151 2.0 3.0 0.00 0.00 0.00 72 1011.5
20260505081126 59 164 2.0 4.0 0.00 0.00 0.00 73 1011.5
20260505081012 59 153 2.0 3.0 0.00 0.00 0.00 73 1011.5
20260505080921 59 157 2.0 3.0 0.00 0.00 0.00 73 1011.5
20260505080848 59 157 2.0 3.0 0.00 0.00 0.00 73 1011.5
20260505080715 59 157 2.0 3.0 0.00 0.00 0.00 73 1011.6
20260505080555 59 157 2.0 3.0 0.00 0.00 0.00 73 1011.6
20260505080349 59 157 2.0 3.0 0.00 0.00 0.00 73 1011.7
20260505080215 59 157 2.0 3.0 0.00 0.00 0.00 73 1011.6
20260505080123 60 157 2.0 3.0 0.00 0.00 0.00 73 1011.6
20260505080030 60 157 2.0 3.0 0.00 0.00 0.00 73 1011.7
20260505075942 60 157 1.0 3.0 0.00 0.00 0.00 72 1011.7
20260505075829 60 157 1.0 3.0 0.00 0.00 0.00 73 1011.7
20260505075717 60 157 1.0 3.0 0.00 0.00 0.00 72 1011.7
20260505075645 60 157 2.0 3.0 0.00 0.00 0.00 72 1011.7
20260505075512 60 157 2.0 3.0 0.00 0.00 0.00 72 1011.7
20260505075419 60 157 1.0 3.0 0.00 0.00 0.00 72 1011.7
20260505075310 60 157 1.0 3.0 0.00 0.00 0.00 72 1011.7
20260505075218 60 157 1.0 3.0 0.00 0.00 0.00 72 1011.7
20260505075125 60 152 1.0 3.0 0.00 0.00 0.00 72 1011.7
20260505075056 60 152 1.0 3.0 0.00 0.00 0.00 72 1011.6
20260505074813 60 152 2.0 3.0 0.00 0.00 0.00 72 1011.8
20260505074740 60 147 2.0 3.0 0.00 0.00 0.00 71 1011.8
20260505074626 60 162 2.0 3.0 0.00 0.00 0.00 71 1011.8
20260505074513 60 166 1.0 3.0 0.00 0.00 0.00 71 1011.8
20260505074421 60 156 1.0 3.0 0.00 0.00 0.00 71 1011.8
20260505074328 60 165 1.0 4.0 0.00 0.00 0.00 71 1011.9
20260505074220 60 164 1.0 5.0 0.00 0.00 0.00 71 1011.8
20260505074147 60 173 1.0 5.0 0.00 0.00 0.00 71 1011.8
20260505074014 60 180 2.0 5.0 0.00 0.00 0.00 71 1011.9
20260505073922 60 177 1.0 6.0 0.00 0.00 0.00 71 1011.9
20260505073811 60 172 1.0 6.0 0.00 0.00 0.00 71 1012.0
20260505073739 60 182 2.0 6.0 0.00 0.00 0.00 71 1012.1
20260505073625 60 184 3.0 6.0 0.00 0.00 0.00 71 1012.1
20260505073559 60 171 3.0 7.0 0.00 0.00 0.00 71 1012.0
20260505073313 60 192 4.0 7.0 0.00 0.00 0.00 71 1012.0
20260505073222 60 193 4.0 7.0 0.00 0.00 0.00 71 1012.0
20260505073149 60 197 3.0 7.0 0.00 0.00 0.00 71 1012.1
20260505073020 60 208 3.0 7.0 0.00 0.00 0.00 71 1012.0
20260505072928 60 180 3.0 7.0 0.00 0.00 0.00 71 1012.1
20260505072835 60 187 4.0 7.0 0.00 0.00 0.00 71 1012.1
20260505072720 60 177 3.0 7.0 0.00 0.00 0.00 71 1012.1
20260505072648 60 200 2.0 4.0 0.00 0.00 0.00 71 1012.1
20260505072534 60 187 2.0 4.0 0.00 0.00 0.00 71 1012.1
20260505072420 60 194 2.0 4.0 0.00 0.00 0.00 71 1012.1
20260505072311 60 197 2.0 4.0 0.00 0.00 0.00 71 1012.1
20260505072219 60 200 2.0 4.0 0.00 0.00 0.00 71 1012.1
20260505072126 60 200 2.0 4.0 0.00 0.00 0.00 71 1012.1
20260505072056 60 200 2.0 4.0 0.00 0.00 0.00 71 1012.0
20260505071814 60 198 2.0 4.0 0.00 0.00 0.00 71 1012.1
20260505071721 60 201 2.0 4.0 0.00 0.00 0.00 71 1012.1
20260505071609 60 198 2.0 4.0 0.00 0.00 0.00 71 1012.0
20260505071517 60 197 2.0 4.0 0.00 0.00 0.00 71 1012.0
20260505071423 60 182 2.0 4.0 0.00 0.00 0.00 71 1012.0
20260505071311 60 196 2.0 4.0 0.00 0.00 0.00 71 1011.9
20260505071223 60 188 2.0 4.0 0.00 0.00 0.00 71 1011.9
20260505071110 60 178 2.0 4.0 0.00 0.00 0.00 71 1012.0
20260505071018 60 163 2.0 4.0 0.00 0.00 0.00 71 1012.0
20260505070925 60 180 2.0 3.0 0.00 0.00 0.00 71 1012.0
20260505070811 60 170 1.0 3.0 0.00 0.00 0.00 71 1011.9
20260505070724 60 178 1.0 3.0 0.00 0.00 0.00 71 1011.9
20260505070652 60 178 1.0 3.0 0.00 0.00 0.00 71 1012.0
20260505070559 60 176 1.0 2.0 0.00 0.00 0.00 71 1012.0
20260505070313 60 179 1.0 2.0 0.00 0.00 0.00 71 1012.0
20260505070222 60 179 1.0 2.0 0.00 0.00 0.00 71 1012.0
20260505070112 60 179 1.0 2.0 0.00 0.00 0.00 71 1012.0
20260505070021 60 179 1.0 2.0 0.00 0.00 0.00 71 1012.0
20260505065928 60 179 1.0 2.0 0.00 0.00 0.00 71 1012.0
20260505065815 60 179 1.0 2.0 0.00 0.00 0.00 71 1012.0
20260505065723 60 181 1.0 2.0 0.00 0.00 0.00 71 1012.0
20260505065614 60 181 1.0 2.0 0.00 0.00 0.00 71 1012.0
20260505065522 60 181 1.0 2.0 0.00 0.00 0.00 71 1012.0
20260505065428 60 181 1.0 2.0 0.00 0.00 0.00 71 1012.0
20260505065317 60 164 1.0 2.0 0.00 0.00 0.00 72 1012.0
20260505065224 60 164 1.0 2.0 0.00 0.00 0.00 72 1012.0
20260505065132 60 164 1.0 2.0 0.00 0.00 0.00 72 1012.0
20260505065107 60 164 1.0 2.0 0.00 0.00 0.00 72 1012.0
20260505064820 60 164 1.0 2.0 0.00 0.00 0.00 72 1012.0
20260505064728 60 164 1.0 2.0 0.00 0.00 0.00 71 1012.0
20260505064615 60 164 1.0 2.0 0.00 0.00 0.00 72 1012.1
20260505064541 60 164 1.0 2.0 0.00 0.00 0.00 72 1012.1
20260505064411 60 164 1.0 2.0 0.00 0.00 0.00 71 1012.0
20260505064319 60 164 1.0 2.0 0.00 0.00 0.00 71 1012.0
20260505064227 60 164 0.0 2.0 0.00 0.00 0.00 71 1012.1
20260505064115 60 164 0.0 2.0 0.00 0.00 0.00 71 1012.0
20260505064023 60 164 0.0 2.0 0.00 0.00 0.00 71 1012.0
20260505063915 60 164 0.0 2.0 0.00 0.00 0.00 71 1012.1
20260505063822 60 164 0.0 2.0 0.00 0.00 0.00 71 1012.1
20260505063728 60 164 1.0 2.0 0.00 0.00 0.00 71 1012.0
20260505063616 60 164 1.0 2.0 0.00 0.00 0.00 71 1012.0
20260505063546 60 164 1.0 2.0 0.00 0.00 0.00 71 1012.0
20260505063323 60 170 1.0 2.0 0.00 0.00 0.00 71 1012.1
20260505063210 60 170 0.0 2.0 0.00 0.00 0.00 71 1012.1
20260505063117 60 170 0.0 2.0 0.00 0.00 0.00 71 1012.1
20260505063045 60 170 1.0 2.0 0.00 0.00 0.00 71 1012.1
20260505062912 60 181 1.0 2.0 0.00 0.00 0.00 71 1012.2
20260505062840 61 196 0.0 2.0 0.00 0.00 0.00 71 1012.2
20260505062711 61 196 0.0 1.0 0.00 0.00 0.00 71 1012.1
20260505062618 61 196 0.0 1.0 0.00 0.00 0.00 71 1012.1
20260505062527 61 196 0.0 1.0 0.00 0.00 0.00 71 1012.1
20260505062413 61 196 0.0 1.0 0.00 0.00 0.00 71 1012.2
20260505062321 61 196 0.0 2.0 0.00 0.00 0.00 70 1012.2
20260505062248 61 196 0.0 2.0 0.00 0.00 0.00 70 1012.2
20260505062134 61 196 0.0 2.0 0.00 0.00 0.00 70 1012.2
20260505062047 61 196 0.0 2.0 0.00 0.00 0.00 70 1012.2
20260505061821 61 196 0.0 3.0 0.00 0.00 0.00 70 1012.2
20260505061750 61 196 0.0 3.0 0.00 0.00 0.00 70 1012.1
20260505061617 61 196 0.0 3.0 0.00 0.00 0.00 70 1012.2
20260505061509 61 196 0.0 3.0 0.00 0.00 0.00 70 1012.2
20260505061418 61 196 1.0 3.0 0.00 0.00 0.00 70 1012.3
20260505061326 61 196 1.0 3.0 0.00 0.00 0.00 69 1012.3
20260505061214 61 187 1.0 3.0 0.00 0.00 0.00 69 1012.3
20260505061122 61 187 1.0 3.0 0.00 0.00 0.00 69 1012.3
20260505061049 61 196 1.0 2.0 0.00 0.00 0.00 69 1012.2
20260505060920 61 199 1.0 2.0 0.00 0.00 0.00 69 1012.3
20260505060849 61 199 1.0 2.0 0.00 0.00 0.00 69 1012.2
20260505060715 61 199 1.0 2.0 0.00 0.00 0.00 69 1012.3
20260505060622 61 199 1.0 2.0 0.00 0.00 0.00 69 1012.3
20260505060553 61 199 1.0 2.0 0.00 0.00 0.00 69 1012.2
20260505060331 62 186 1.0 2.0 0.00 0.00 0.00 69 1012.2
20260505060218 62 190 0.0 2.0 0.00 0.00 0.00 69 1012.2
20260505060147 62 190 0.0 3.0 0.00 0.00 0.00 69 1012.2
20260505060014 62 190 0.0 3.0 0.00 0.00 0.00 69 1012.2
20260505055920 62 190 0.0 3.0 0.00 0.00 0.00 68 1012.2
20260505055828 62 190 0.0 3.0 0.00 0.00 0.00 68 1012.2
20260505055720 62 190 0.0 3.0 0.00 0.00 0.00 68 1012.2
20260505055627 62 190 1.0 3.0 0.00 0.00 0.00 68 1012.2
20260505055512 62 190 1.0 3.0 0.00 0.00 0.00 68 1012.2
20260505055420 62 190 1.0 3.0 0.00 0.00 0.00 68 1012.2
20260505055328 62 194 1.0 4.0 0.00 0.00 0.00 68 1012.2
20260505055236 62 186 1.0 4.0 0.00 0.00 0.00 68 1012.3
20260505055126 62 186 0.0 4.0 0.00 0.00 0.00 68 1012.3
20260505055056 62 186 0.0 4.0 0.00 0.00 0.00 68 1012.2
20260505054810 62 186 0.0 4.0 0.00 0.00 0.00 68 1012.3
20260505054718 62 186 1.0 4.0 0.00 0.00 0.00 68 1012.2
20260505054625 62 197 1.0 4.0 0.00 0.00 0.00 68 1012.2
20260505054518 62 197 2.0 4.0 0.00 0.00 0.00 67 1012.3
20260505054424 62 184 2.0 4.0 0.00 0.00 0.00 68 1012.3
20260505054311 62 206 2.0 4.0 0.00 0.00 0.00 68 1012.3
20260505054219 63 213 2.0 4.0 0.00 0.00 0.00 67 1012.4
20260505054126 63 199 2.0 4.0 0.00 0.00 0.00 67 1012.4
20260505054018 63 188 2.0 4.0 0.00 0.00 0.00 67 1012.3
20260505053925 63 202 2.0 4.0 0.00 0.00 0.00 67 1012.3
20260505053813 63 189 3.0 5.0 0.00 0.00 0.00 67 1012.3
20260505053721 63 196 2.0 5.0 0.00 0.00 0.00 67 1012.3
20260505053649 63 171 3.0 5.0 0.00 0.00 0.00 67 1012.3
20260505053543 63 178 3.0 5.0 0.00 0.00 0.00 67 1012.3
20260505053317 63 196 3.0 5.0 0.00 0.00 0.00 67 1012.3
20260505053225 63 178 3.0 5.0 0.00 0.00 0.00 67 1012.3
20260505053112 63 189 2.0 5.0 0.00 0.00 0.00 67 1012.3
20260505053018 63 201 2.0 5.0 0.00 0.00 0.00 67 1012.3
20260505052910 63 186 2.0 5.0 0.00 0.00 0.00 67 1012.3
20260505052819 63 155 1.0 5.0 0.00 0.00 0.00 67 1012.3
20260505052725 63 168 1.0 5.0 0.00 0.00 0.00 67 1012.3
20260505052632 63 186 2.0 5.0 0.00 0.00 0.00 67 1012.3
20260505052520 63 175 3.0 7.0 0.00 0.00 0.00 67 1012.3
20260505052449 63 201 3.0 7.0 0.00 0.00 0.00 67 1012.3
20260505052318 63 169 3.0 7.0 0.00 0.00 0.00 67 1012.3
20260505052245 63 171 3.0 7.0 0.00 0.00 0.00 67 1012.3
20260505052131 63 202 2.0 7.0 0.00 0.00 0.00 67 1012.4
20260505052102 63 178 2.0 7.0 0.00 0.00 0.00 67 1012.4
20260505051816 63 239 4.0 7.0 0.00 0.00 0.00 67 1012.4
20260505051727 63 203 5.0 7.0 0.00 0.00 0.00 66 1012.4
20260505051614 63 180 4.0 8.0 0.00 0.00 0.00 67 1012.3
20260505051543 63 167 4.0 7.0 0.00 0.00 0.00 67 1012.3
20260505051410 63 182 4.0 7.0 0.00 0.00 0.00 67 1012.3
20260505051317 63 223 4.0 7.0 0.00 0.00 0.00 67 1012.4
20260505051246 63 173 3.0 7.0 0.00 0.00 0.00 67 1012.4
20260505051116 63 174 3.0 5.0 0.00 0.00 0.00 67 1012.3
20260505051024 63 184 3.0 5.0 0.00 0.00 0.00 67 1012.3
20260505050911 63 173 2.0 6.0 0.00 0.00 0.00 67 1012.3
20260505050819 63 196 3.0 6.0 0.00 0.00 0.00 67 1012.3
20260505050726 63 199 3.0 6.0 0.00 0.00 0.00 67 1012.3
20260505050614 63 162 2.0 5.0 0.00 0.00 0.00 67 1012.4
20260505050549 63 214 2.0 4.0 0.00 0.00 0.00 67 1012.4
20260505050324 63 146 2.0 4.0 0.00 0.00 0.00 67 1012.3
20260505050231 63 166 2.0 4.0 0.00 0.00 0.00 66 1012.4
20260505050117 63 169 2.0 4.0 0.00 0.00 0.00 66 1012.3